Home > Weather > Edmonton > Past weeks

Flag for Canada Weather for the Past 2 Weeks in Edmonton, Alberta, Canada

Now
58 °F

Refreshingly cool.


Feels Like: 56 °F
Forecast: 50 / 63 °F
Wind: 8 mph from Northwest

Location: Edmonton Municipal

Current Time: May 5, 2016 at 2:30:29 PM

Latest Report: May 5, 2016 at 2:00 PM


Visibility: N/A

Pressure: 30.04 "Hg (27.67 "Hg at 692m altitude)

Humidity: 28%

Dew Point: 24 °F

Location of EdmontonLocation

Historic Weather in Edmonton — Graph

°F

Edmonton Temperature Yesterday

Maximum temperature yesterday: 83 °F (at 4:00 PM)
Minimum temperature yesterday: 54 °F (at 6:00 AM)
Average temperature yesterday: 70 °F

High & Low Weather Summary for the Past Weeks

 TemperatureHumidityPressure
High85 °F (May 3, 4:00 PM)100% (Apr 25, 10:00 AM)30.25 "Hg (Apr 25, 10:00 AM)
Low32 °F (Apr 21, 6:00 AM)12% (May 3, 3:00 PM)29.68 "Hg (May 4, 5:00 PM)
Average52 °F53%30.04 "Hg
* Reported Apr 20 1:00 PM — May 5 1:00 PM, Edmonton, Weather by CustomWeather, © 2016

Note: Actual official high and low records may vary slightly from our data, if they occured in-between our weather recording intervals... More about our weather records

Advertising

Edmonton Weather History for the Previous 24 Hours

Scroll right to see more
 ConditionsComfort  
Time TempWeatherWind HumidityBarometerVisibility
1:00 PM
Thu, May 5
54 °FCool.3 mph41%30.05 "HgN/A
12:00 PM53 °FCool.10 mph44%30.06 "HgN/A
11:00 AM53 °FCool.10 mph42%30.05 "HgN/A
10:00 AM52 °FCool.10 mph51%30.03 "HgN/A
9:00 AM52 °FCool.14 mph49%30.00 "HgN/A
8:00 AM53 °FCool.15 mph47%29.98 "HgN/A
7:00 AM54 °FCool.12 mph39%29.96 "HgN/A
6:00 AM54 °FCool.10 mph38%29.92 "HgN/A
5:00 AM56 °FRefreshingly cool.9 mph37%29.89 "HgN/A
4:00 AM54 °FCool.8 mph44%29.87 "HgN/A
3:00 AM57 °FRefreshingly cool.9 mph41%29.85 "HgN/A
2:00 AM59 °FRefreshingly cool.9 mph32%29.84 "HgN/A
1:00 AM60 °FRefreshingly cool.12 mph31%29.81 "HgN/A
12:00 AM61 °FRefreshingly cool.13 mph31%29.79 "HgN/A
11:00 PM
Wed, May 4
62 °FRefreshingly cool.14 mph33%29.80 "HgN/A
10:00 PM67 °FMild.12 mph36%29.75 "HgN/A
9:00 PM69 °FMild.13 mph34%29.71 "HgN/A
8:00 PM73 °FMild.13 mph30%29.70 "HgN/A
7:00 PM79 °FPleasantly warm.13 mph18%29.68 "HgN/A
6:00 PM80 °FPleasantly warm.10 mph16%29.68 "HgN/A
5:00 PM81 °FPleasantly warm.7 mph15%29.68 "HgN/A
4:00 PM83 °FPleasantly warm.7 mph13%29.68 "HgN/A
3:00 PM83 °FPleasantly warm.7 mph14%29.69 "HgN/A
2:00 PM81 °FPleasantly warm.5 mph16%29.72 "HgN/A
Weather by CustomWeather, © 2016

See weather overviewHow to use our weather pages